Regional Weather Roundup
Issued by NWS Kansas City/Pleasant Hill, MO

Home | Current Version | Previous Version | Graphics & Text | Print | Product List | Glossary Off
Versions: 1 2 3 4 5 6 7 8 9 10 11 12 13 14 15 16 17 18 19 20 21 22 23 24 25 26 27 28 29 30 31 32 33 34 35 36 37 38 39 40 41 42 43 44 45 46 47 48 49 50

000
ASUS43 KEAX 310410
RWREAX

WEATHER ROUNDUP FOR EASTERN KANSAS AND NORTHWEST MISSOURI
NATIONAL WEATHER SERVICE KANSAS CITY/PLEASANT HILL MO
1100 PM CDT SAT AUG 30 2014

KSZ040-057-103>105-MOZ028-029-037-043-310500-
...KANSAS CITY METROPOLITAN AREA...

CITY           SKY/WX    TMP DP  RH WIND       PRES   REMARKS
K.C. INTL      CLEAR     74  68  81 SE7       29.91S
K.C. DOWNTOWN  CLEAR     77  67  71 E5        29.89S
LEES SUMMIT    CLEAR     75  67  76 SE8       29.92S
OLATHE - IXD   CLEAR     74  66  76 SE5       29.92R
OLATHE - OJC   CLEAR     74  67  78 SE6       29.91S
LAWRENCE       CLEAR     71  65  81 E5        29.90S

$$

MOZ001>008-011>017-020>025-030>033-038>040-044>046-053-054-310500-
...NORTHERN AND CENTRAL MISSOURI...

CITY           SKY/WX    TMP DP  RH WIND       PRES   REMARKS
ST. JOSEPH     CLEAR     68  66  93 CALM      29.89S
MOSBY          CLEAR     70  70 100 CALM      29.90S
WHITEMAN AFB   CLEAR     71  67  87 S5        29.92R
CLINTON        CLEAR     72  70  94 CALM      29.93R
SEDALIA        CLEAR     75  68  78 S7        29.93S
WARSAW         NOT AVBL
MARSHALL       CLEAR     73  72  94 CALM      29.93R
CHILLICOTHE      N/A     70  68  93 CALM      29.92S
MOBERLY        CLEAR     72  66  83 CALM      29.94R
KIRKSVILLE     CLEAR     69  67  93 CALM      29.93S

$$

MOZ041-047>049-056>058-063>065-088>090-097-310500-
...EASTERN AND SOUTHERN MISSOURI...

CITY           SKY/WX    TMP DP  RH WIND       PRES   REMARKS
ST. LOUIS INTL PTCLDY    78  72  81 S8        29.94S
SPIRIT OF STL  PTCLDY    76  70  82 S3        29.93R
COLUMBIA       MOCLDY    72  69  90 S5        29.94R
JEFFERSON CITY MOCLDY    72  68  87 E5        29.92S
MEXICO         PTCLDY   N/A N/A N/A S5        29.93
HANNIBAL       PTCLDY    73  70  88 S3        29.93S
ROLLA          PTCLDY    69  67  93 S7        29.95R
LEBANON        CLEAR     72  66  83 S8        29.97S
OSAGE BEACH    PTCLDY    73  66  78 S5        29.94R
SPRINGFIELD    CLEAR     70  66  87 S10       29.96R
BRANSON        CLEAR     72  68  88 CALM      29.98S
NEVADA         CLEAR     73  66  78 S6        29.93S
JOPLIN         CLEAR     76  67  73 SE7       29.94S
WEST PLAINS    CLEAR     73  69  87 S3        30.01R

$$

IAZ060-094-KSZ022-034>040-054-083-096-NEZ052-066-093-310500-
...KANSAS...SOUTHEAST NEBRASKA AND IOWA...

CITY           SKY/WX    TMP DP  RH WIND       PRES   REMARKS
TOPEKA         CLEAR     76  67  73 E5        29.89R
MANHATTAN      CLEAR     74  63  68 CALM      29.87S
EMPORIA        CLEAR     72  59  63 S7        29.90R
CHANUTE        CLEAR     75  64  68 S9        29.91R
WICHITA        CLEAR     76  61  59 SE6       29.89S
OMAHA          CLEAR     71  64  78 SE8       29.87S
LINCOLN        CLEAR     76  63  64 SE8       29.86S
FALLS CITY     CLEAR     71  67  87 SE3       29.88R
LAMONI         CLEAR     73  66  78 S6        29.91S
DES MOINES     CLEAR     70  65  84 CALM      29.89S

$$



USA.gov is the U.S. government's official web portal to all federal, state and local government web resources and services.